Location: Home
(42.5358°N, 72.7383°W)
Time: 06:22:02
(UTC-05:00)

Transit 4A - Pass Details

Date: 09 December 2021
Orbit: 863 x 981 km, 66.8° (Epoch: 26 January)

Event Time Altitude Azimuth Distance (km) Brightness Sun altitude
Rises 19:16:24 0° 250° (WSW) 3,469 11.9 -32.0°
Reaches altitude 10° 19:19:19 10° 263° (W) 2,550 11.0 -32.6°
Maximum altitude 19:24:05 25° 317° (NW) 1,757 9.6 -33.5°
Enters shadow 19:25:47 22° 342° (NNW) 1,890 9.6 -33.8°
